User: anonymous   Login
Location: Aufkirchen
(47.9603°N, 11.3653°E)
Time: 16:05:36
(UTC+01:00)
Language:

Transit 4A - Orbit

View from above orbital plane
View from above orbital plane
View from above satellite
View from above satellite

Ground track
Ground track

The orbit data is extracted from the following two-line orbital elements,

1   116U 61015A   20328.71630902 -.00000065  00000-0  90881-5 0  9997
2   116  66.8084 178.8747 0082133 258.1709 101.0150 13.91778841 14465
Epoch (UTC): 23 November 2020 17:11:29
Eccentricity: 0.0082133
inclination: 66.8084°
perigee height: 862 km
apogee height: 982 km
right ascension of ascending node: 178.8747°
argument of perigee: 258.1709°
revolutions per day: 13.91778841
mean anomaly at epoch: 101.0150°
orbit number at epoch: 1446

The dashed part of the orbit path shows where the satellite is in the earth's shadow,  

DLR